Powrót do katalogu

STARLINK-34376

AktywnyŁącznośćVLEO
NORAD 64300·PAYLOAD·🇺🇸 United States

Wystrzelony Jun 8, 2025 z Vandenberg Space Force Base

Loading…

Następne Przeloty (najbliższe 24 godziny)

TLE

ŚwieżeSource: CelesTrak SupGP

Epoka: Sep 15, 2026, 03:11 UTC

1 64300C 25123K   26258.13312500 -.00048028  00000+0 -16716-2 0  2588
2 64300  69.9999  75.1007 0003213 270.7893 250.8698 15.29586834    11

Śledź STARLINK-34376 w czasie rzeczywistym z AllMySat

Download on the App Store